Starlink 31183

operational
NORAD ID: 58747 Int'l Des: 2024-005 Owner: SPXS Country: US Constellation: starlink
LEOCIRCULAR

关于 Starlink 31183

正在加载描述...

实时位置

正在加载3D地球...

即将过境

高度历史

Altitude vs Time

uPlot chart will show altitude changes over time

两行轨道根数

1 58747U 24005V 25258.25445658 .00001068 00000-0 94089-4 0 9992
2 58747 43.0022 94.7230 0001099 270.9876 89.0840 15.02538651 94139
Epoch: Sep 15, 2025 • Age: 7 hours

当前状态

高度 561.5 km
速度 7.59 km/s
星下点 36.43°N, 31.2°E
发射日期 Jan 7, 2024
运行时间 1.6 years
类型 internet

技术详情

分类 Payload
质量 730.00 kg
干质量 700.00 kg
总质量 730.00 kg
长度 0.30 m
直径 4.10 m
跨度 29.00 m
形状 Box + pan
制造商 SPXS
平台类型 Starlink V2M
阶段状态 In Orbit
所有者/国家 SPXS/US

大型星座

Loading constellations...